This is the latest recevied weather packets stored in our database for station/object WA6ODQ-13. If no packets are shown the sender has not sent any weather packets the latest 10 day(s).
| Time | Temp. | Humidity | Pressure | Rain* | Wind** | Luminosity | Snow |
|---|---|---|---|---|---|---|---|
| 1777940229 | 15° C | 74% | 1012.9 hPa | 0 mm | - | 34 W/m² | - |
| 1777939926 | 15° C | 73% | 1012.8 hPa | 0 mm | - | 35 W/m² | - |
| 1777939623 | 15° C | 73% | 1012.9 hPa | 0 mm | - | 46 W/m² | - |
| 1777939321 | 15.56° C | 73% | 1012.8 hPa | 0 mm | - | 48 W/m² | - |
| 1777939016 | 15.56° C | 72% | 1012.8 hPa | 0 mm | - | 45 W/m² | - |
| 1777938713 | 15.56° C | 71% | 1012.8 hPa | 0 mm | - | 47 W/m² | - |
| 1777938411 | 16.11° C | 73% | 1013 hPa | 0 mm | - | 42 W/m² | - |
| 1777938108 | 16.11° C | 73% | 1013.1 hPa | 0 mm | - | 45 W/m² | - |
| 1777937803 | 16.11° C | 74% | 1012.6 hPa | 0 mm | - | 51 W/m² | - |
| 1777937499 | 16.11° C | 73% | 1012.7 hPa | 0 mm | - | 49 W/m² | - |
| 1777937197 | 16.11° C | 71% | 1012.9 hPa | 0 mm | - | 50 W/m² | - |
| 1777936894 | 16.11° C | 72% | 1012.7 hPa | 0 mm | - | 53 W/m² | - |
| 1777936591 | 16.67° C | 71% | 1012.6 hPa | 0 mm | - | 59 W/m² | - |
| 1777936287 | 16.67° C | 72% | 1012.4 hPa | 0 mm | - | 69 W/m² | - |
| 1777935983 | 16.67° C | 70% | 1012.4 hPa | 0 mm | - | 79 W/m² | - |
| 1777935682 | 16.67° C | 67% | 1012.8 hPa | 0 mm | - | 64 W/m² | - |
| 1777935380 | 17.22° C | 64% | 1012.4 hPa | 0 mm | - | 58 W/m² | - |
| 1777935076 | 17.22° C | 63% | 1012.7 hPa | 0 mm | - | 57 W/m² | - |
| 1777934773 | 17.22° C | 62% | 1012.6 hPa | 0 mm | - | 64 W/m² | - |
| 1777934470 | 17.22° C | 63% | 1012.8 hPa | 0 mm | - | 81 W/m² | - |
| 1777934167 | 17.22° C | 63% | 1012.6 hPa | 0 mm | - | 69 W/m² | - |
| 1777933862 | 17.22° C | 63% | 1012.8 hPa | 0 mm | - | 64 W/m² | - |
| 1777933559 | 17.22° C | 63% | 1012.8 hPa | 0 mm | - | 63 W/m² | - |
| 1777933256 | 17.22° C | 63% | 1012.9 hPa | 0 mm | - | 65 W/m² | - |
| 1777932954 | 17.78° C | 63% | 1012.8 hPa | 0 mm | - | 76 W/m² | - |
* Rain latest hour (hover to see other rain measurements)
** Current wind speed in m/s (hover to see current wind gust speed)